User: anonymous   Login
Location: Unspecified
(0.0000°N, 0.0000°E)
Time: 19:33:28
(UTC+00:00)
Language:

Picosat 4 - Orbit

View from above orbital plane
View from above orbital plane
View from above satellite
View from above satellite

Ground track
Ground track

The orbit data is extracted from the following two-line orbital elements,

1 26092U 00004K   19341.37205290  .00000100  00000-0  47025-4 0  9992
2 26092 100.1919 216.5849 0034172 121.9750 238.4763 14.43567791 42016
Epoch (UTC): 07 December 2019 08:55:45
Eccentricity: 0.0034172
inclination: 100.1919°
perigee height: 722 km
apogee height: 771 km
right ascension of ascending node: 216.5849°
argument of perigee: 121.9750°
revolutions per day: 14.43567791
mean anomaly at epoch: 238.4763°
orbit number at epoch: 4201

The dashed part of the orbit path shows where the satellite is in the earth's shadow,  

DLR